Home   Weather   Spartanburg   Past weeks

Flag for USA Past Weather in Spartanburg, South Carolina, USA — Yesterday and Last 2 Weeks

66 °F


Feels Like: 66 °F
Forecast: 46 / 68 °F
Wind: 9 mph from North

Location: Spartanburg Memorial

Current Time: Oct 24, 2016 at 9:32:46 PM

Latest Report: Oct 24, 2016 at 8:55 PM

Visibility: 10 mi

Pressure: 30.17 "Hg

Humidity: 32%

Dew Point: 36 °F

Location of SpartanburgLocation

Past Weather in Spartanburg — Graph


Spartanburg Temperature Yesterday

Maximum temperature yesterday: 72 °F (at 2:35 PM)
Minimum temperature yesterday: 41 °F (at 1:15 AM)
Average temperature yesterday: 55 °F

High & Low Weather Summary for the Past Weeks

High88 °F (Oct 19, 3:15 PM)94% (Oct 15, 8:15 AM)30.44 "Hg (Oct 15, 8:15 AM)
Low41 °F (Oct 23, 1:15 AM)20% (Oct 24, 3:15 PM)29.75 "Hg (Oct 21, 6:35 AM)
Average62 °F64%30.15 "Hg
* Reported Oct 9 8:15 PM — Oct 24 8:35 PM, Spartanburg, Weather by CustomWeather, © 2016

Note: Actual official high and low records may vary slightly from our data, if they occured in-between our weather recording intervals... More about our weather records


Spartanburg Weather History for the Previous 24 Hours

Scroll right to see more
Time TempWeatherWind HumidityBarometerVisibility
8:35 PM
Mon, Oct 24
68 °FClear.3 mph33%30.17 "Hg10 mi
8:15 PM70 °FClear.8 mph31%30.16 "Hg10 mi
7:55 PM68 °FClear.6 mph40%30.15 "Hg10 mi
7:15 PM66 °FClear.No wind52%30.13 "Hg10 mi
6:55 PM68 °FClear.No wind46%30.12 "Hg10 mi
6:35 PM72 °FSunny.No wind38%30.12 "Hg10 mi
6:15 PM77 °FSunny.3 mph30%30.11 "Hg10 mi
5:55 PM79 °FSunny.3 mph26%30.11 "Hg10 mi
5:35 PM79 °FSunny.3 mph26%30.11 "Hg10 mi
5:15 PM81 °FSunny.7 mph23%30.11 "Hg10 mi
4:55 PM81 °FSunny.6 mph23%30.11 "Hg10 mi
4:35 PM81 °FSunny.3 mph21%30.11 "Hg10 mi
4:15 PM81 °FSunny.6 mph21%30.11 "Hg10 mi
3:55 PM81 °FSunny.6 mph21%30.11 "Hg10 mi
3:35 PM81 °FSunny.5 mph20%30.12 "Hg7 mi
3:15 PM81 °FSunny.8 mph20%30.12 "Hg7 mi
2:55 PM79 °FSunny.9 mph21%30.12 "Hg10 mi
2:35 PM79 °FSunny.7 mph21%30.13 "Hg10 mi
2:15 PM79 °FSunny.5 mph23%30.13 "Hg7 mi
1:55 PM79 °FSunny.8 mph23%30.14 "Hg10 mi
1:35 PM77 °FSunny.6 mph24%30.16 "Hg10 mi
1:15 PM77 °FSunny.6 mph26%30.17 "Hg10 mi
12:55 PM75 °FSunny.7 mph27%30.17 "Hg10 mi
12:35 PM75 °FSunny.3 mph29%30.18 "Hg10 mi
11:55 AM73 °FSunny.5 mph31%30.18 "Hg10 mi
11:35 AM72 °FSunny.7 mph33%30.18 "Hg10 mi
10:55 AM70 °FSunny.6 mph33%30.19 "Hg10 mi
10:35 AM68 °FSunny.6 mph35%30.19 "Hg10 mi
10:15 AM68 °FSunny.3 mph38%30.19 "Hg10 mi
9:55 AM63 °FSunny.3 mph49%30.19 "Hg10 mi
9:35 AM61 °FSunny.3 mph52%30.19 "Hg10 mi
9:15 AM55 °FScattered clouds.No wind63%30.19 "Hg7 mi
8:55 AM54 °FScattered clouds.No wind67%30.18 "Hg10 mi
8:35 AM48 °FSunny.3 mph76%30.18 "Hg10 mi
8:15 AM46 °FSunny.5 mph82%30.17 "Hg10 mi
7:55 AM43 °FSunny.3 mph87%30.17 "Hg10 mi
7:35 AM45 °FClear.No wind81%30.17 "Hg10 mi
7:15 AM43 °FClear.No wind81%30.17 "Hg10 mi
6:55 AM43 °FClear.3 mph87%30.16 "Hg10 mi
6:35 AM45 °FClear.No wind81%30.16 "Hg10 mi
6:15 AM43 °FClear.No wind87%30.15 "Hg10 mi
5:55 AM46 °FClear.No wind76%30.15 "Hg10 mi
5:35 AM45 °FClear.No wind81%30.15 "Hg10 mi
5:15 AM43 °FClear.3 mph81%30.15 "Hg10 mi
4:55 AM45 °FClear.No wind76%30.15 "Hg10 mi
4:35 AM43 °FClear.No wind81%30.15 "Hg10 mi
4:15 AM45 °FClear.3 mph76%30.15 "Hg10 mi
3:55 AM45 °FClear.No wind76%30.15 "Hg10 mi
3:35 AM46 °FClear.No wind71%30.15 "Hg10 mi
3:15 AM50 °FClear.No wind62%30.16 "Hg10 mi
2:55 AM50 °FClear.No wind62%30.16 "Hg10 mi
2:35 AM50 °FClear.No wind62%30.16 "Hg10 mi
2:15 AM46 °FClear.3 mph71%30.17 "Hg10 mi
1:55 AM50 °FClear.No wind62%30.17 "Hg10 mi
1:35 AM48 °FClear.No wind66%30.17 "Hg10 mi
1:15 AM50 °FClear.No wind62%30.18 "Hg10 mi
12:55 AM50 °FClear.3 mph62%30.18 "Hg10 mi
12:35 AM50 °FClear.3 mph62%30.18 "Hg10 mi
12:15 AM50 °FClear.3 mph67%30.18 "Hg10 mi
11:55 PM
Sun, Oct 23
50 °FClear.3 mph67%30.18 "Hg10 mi
11:35 PM46 °FClear.3 mph82%30.19 "Hg10 mi
11:15 PM48 °FClear.3 mph76%30.19 "Hg10 mi
10:55 PM50 °FClear.No wind67%30.19 "Hg10 mi
10:35 PM50 °FClear.No wind71%30.19 "Hg10 mi
9:55 PM52 °FClear.No wind67%30.18 "Hg10 mi
9:35 PM54 °FClear.No wind58%30.18 "Hg10 mi
9:15 PM54 °FClear.No wind58%30.18 "Hg10 mi
Weather by CustomWeather, © 2016

See weather overviewHow to use our weather pages